EW1742 Weather Reports


time (UTC)temp
C
wind
direction
speed
KPH
gust
KPH
rain 1hr
cm
rain 24hr
cm
rain mn
cm
humidity
%
barometer
mb
20260504183042 22 247 0.0 0.0 0.00 0.00 0.00 34 1015.0
20260504181542 21 203 0.0 9.7 0.00 0.00 0.00 38 1015.3
20260504180040 21 156 0.0 0.0 0.00 0.00 0.00 35 1015.5
20260504174540 21 156 0.0 0.0 0.00 0.00 0.00 36 1015.7
20260504173036 22 156 0.0 0.0 0.00 0.00 0.00 36 1015.8
20260504171535 22 156 0.0 0.0 0.00 0.00 0.00 35 1016.0
20260504081600 4 152 0.0 0.0 0.00 0.00 0.00 79 1018.1
20260504044535 3 152 0.0 0.0 0.00 0.00 0.00 81 1018.1
20260504043033 3 152 0.0 0.0 0.00 0.00 0.00 82 1018.2
20260504041530 3 152 0.0 0.0 0.00 0.00 0.00 80 1018.1
20260504040030 3 152 0.0 0.0 0.00 0.00 0.00 78 1018.0
20260504034528 4 152 0.0 0.0 0.00 0.00 0.00 78 1017.9
20260504033026 4 152 0.0 0.0 0.00 0.00 0.00 77 1017.8
20260504031528 4 152 0.0 0.0 0.00 0.00 0.00 75 1017.7
20260504030025 5 152 0.0 0.0 0.00 0.00 0.00 76 1017.7
20260504024525 5 152 0.0 0.0 0.00 0.00 0.00 73 1017.7
20260504023023 5 152 0.0 0.0 0.00 0.00 0.00 72 1017.6
20260504021522 6 152 0.0 0.0 0.00 0.00 0.00 72 1017.5
20260504020025 6 152 0.0 0.0 0.00 0.00 0.00 69 1017.4
20260504014539 6 152 0.0 0.0 0.00 0.00 0.00 69 1017.4
20260504013020 7 152 0.0 0.0 0.00 0.00 0.00 67 1017.3
20260504011521 7 152 0.0 0.0 0.00 0.00 0.00 67 1017.1
20260504010019 7 152 0.0 0.0 0.00 0.00 0.00 67 1016.9
20260504004518 7 152 0.0 0.0 0.00 0.00 0.00 61 1016.6
20260504003017 8 152 0.0 0.0 0.00 0.00 0.00 57 1016.3
20260504001518 9 152 0.0 0.0 0.00 0.00 0.00 56 1016.1
20260504000034 10 152 0.0 0.0 0.00 0.00 0.00 50 1016.0
20260503234516 11 152 0.0 0.0 0.00 0.00 0.00 48 1015.8
20260503233019 11 152 0.0 0.0 0.00 0.00 0.00 41 1015.7
20260503231515 12 152 0.0 0.0 0.00 0.00 0.00 39 1015.7
20260503230014 12 152 0.0 0.0 0.00 0.00 0.00 38 1015.6
20260503224513 12 152 0.0 0.0 0.00 0.00 0.00 39 1015.5
20260503223012 12 152 0.0 0.0 0.00 0.00 0.00 39 1015.5
20260503221512 12 152 0.0 0.0 0.00 0.00 0.00 40 1015.3
20260503220017 12 152 0.0 0.0 0.00 0.00 0.00 40 1015.5
20260503214522 12 153 0.0 0.0 0.00 0.00 0.00 40 1015.5
20260503213010 12 153 0.0 0.0 0.00 0.00 0.00 40 1015.5
20260503211512 12 153 0.0 0.0 0.00 0.00 0.00 40 1015.6
20260503210028 12 153 0.0 0.0 0.00 0.00 0.00 40 1015.4
20260503204511 12 153 0.0 0.0 0.00 0.00 0.00 39 1015.5
20260503203014 12 153 0.0 0.0 0.00 0.00 0.00 40 1015.5
20260503201511 12 153 0.0 0.0 0.00 0.00 0.00 40 1015.4
20260503200007 11 153 0.0 0.0 0.00 0.00 0.00 41 1015.3
20260503194507 12 154 0.0 0.0 0.00 0.00 0.00 39 1015.3
20260503193006 12 153 0.0 0.0 0.00 0.00 0.00 42 1015.3
20260503191506 12 152 0.0 0.0 0.00 0.00 0.00 40 1015.3
20260503190005 12 153 0.0 0.0 0.00 0.08 0.00 38 1015.2
20260503184505 13 153 0.0 0.0 0.00 0.08 0.00 40 1015.3